Location: Unspecified
(0.0000°N, 0.0000°E)
Time: 13:58:24
(UTC+02:00)

PROBA 2 - Pass Details

Date: 30 May 2022
Orbit: 704 x 725 km, 98.2° (Epoch: 30 June)

Event Time Altitude Azimuth Distance (km) Brightness Sun altitude
Rises 20:21:00 0° 356° (N) 3,078 ? -5.4°
Reaches altitude 10° 20:23:24 10° 348° (NNW) 2,163 ? -6.0°
Maximum altitude 20:27:42 35° 282° (WNW) 1,121 ? -7.0°
Drops below altitude 10° 20:32:03 10° 216° (SW) 2,174 ? -8.0°
Sets 20:34:28 0° 208° (SSW) 3,097 ? -8.5°
